When you browse on this site, cookies collect data to enhance your experience and personalize the content and advertising you see.
Visit our Privacy Policy to learn more. By continuing to use the site, you agree to this use of cookies and data.
  • In Österreich
  • Länderverzeichnis
  • Für 7 Tage
  • Wassertemperatur
  • Satellitenkarten
  • Wetterkarte
  • News
  • Widgets
  • user-avatar
    Anmelden

    Stündliche Wetter Trotwood

    Heute, 19 Februar, Dienstag

    Zeit Temperatur Niederschläge Wind Luftdruck Luftfeuchtigkeit
    00:00 -3°C° 0 mm 1 m/S 751 mmHg 75%
    01:00 -3°C° 0 mm 1 m/S 751 mmHg 75%
    02:00 -4°C° 0 mm 0 m/S 751 mmHg 76%
    03:00 -4°C° 0 mm 0 m/S 751 mmHg 77%
    04:00 -5°C° 0 mm 0 m/S 752 mmHg 77%
    05:00 -5°C° 0 mm 0 m/S 752 mmHg 78%
    06:00 -5°C° 0 mm 0 m/S 752 mmHg 78%
    07:00 -3°C° 0 mm 1 m/S 753 mmHg 72%
    08:00 -2°C° 0 mm 1 m/S 753 mmHg 66%
    09:00 -1°C° 0 mm 1 m/S 753 mmHg 60%
    10:00 -2°C° 0 mm 2 m/S 753 mmHg 54%
    11:00 -1°C° 0 mm 2 m/S 753 mmHg 49%
    12:00 +1°C° 0 mm 2 m/S 752 mmHg 43%
    13:00 +1°C° 0 mm 2 m/S 752 mmHg 44%
    14:00 +1°C° 0 mm 3 m/S 751 mmHg 45%
    15:00 +1°C° 0 mm 3 m/S 750 mmHg 45%
    16:00 0°C° 0 mm 3 m/S 749 mmHg 49%
    17:00 -1°C° 0 mm 3 m/S 749 mmHg 53%
    18:00 -2°C° 0 mm 4 m/S 748 mmHg 56%
    19:00 -1°C° 0 mm 3 m/S 748 mmHg 57%
    20:00 -1°C° 0 mm 3 m/S 748 mmHg 58%
    21:00 -1°C° 0 mm 3 m/S 748 mmHg 59%
    22:00 -3°C° 0.1 mm 4 m/S 748 mmHg 62%
    23:00 -3°C° 0.1 mm 4 m/S 747 mmHg 66%

    Morgen, 20 Februar, Mittwoch

    Zeit Temperatur Niederschläge Wind Luftdruck Luftfeuchtigkeit
    00:00 -3°C° 0.1 mm 4 m/S 746 mmHg 70%
    01:00 -4°C° 1.7 mm 5 m/S 745 mmHg 78%
    02:00 -4°C° 1.7 mm 5 m/S 744 mmHg 86%
    03:00 -4°C° 1.7 mm 5 m/S 743 mmHg 94%
    04:00 -2°C° 2.3 mm 5 m/S 742 mmHg 94%
    05:00 -2°C° 2.3 mm 5 m/S 741 mmHg 95%
    06:00 -2°C° 2.3 mm 6 m/S 740 mmHg 95%
    07:00 -1°C° 1.6 mm 5 m/S 740 mmHg 96%
    08:00 0°C° 1.6 mm 5 m/S 739 mmHg 96%
    09:00 0°C° 1.6 mm 5 m/S 738 mmHg 97%
    10:00 0°C° 0.7 mm 5 m/S 738 mmHg 97%
    11:00 0°C° 0.7 mm 5 m/S 737 mmHg 98%
    12:00 +1°C° 0.7 mm 5 m/S 736 mmHg 99%
    13:00 +2°C° 0.2 mm 5 m/S 735 mmHg 98%
    14:00 +2°C° 0.2 mm 6 m/S 733 mmHg 98%
    15:00 +3°C° 0.2 mm 6 m/S 732 mmHg 98%
    16:00 +4°C° 3 mm 6 m/S 732 mmHg 98%
    17:00 +6°C° 3 mm 5 m/S 731 mmHg 98%
    18:00 +7°C° 3 mm 5 m/S 731 mmHg 98%
    19:00 +7°C° 0.4 mm 5 m/S 731 mmHg 97%
    20:00 +7°C° 0.4 mm 6 m/S 732 mmHg 97%
    21:00 +6°C° 0.4 mm 7 m/S 732 mmHg 96%
    22:00 +5°C° 0 mm 6 m/S 733 mmHg 94%
    23:00 +3°C° 0 mm 6 m/S 734 mmHg 92%

    übermorgen, 21 Februar, Donnerstag

    Zeit Temperatur Niederschläge Wind Luftdruck Luftfeuchtigkeit
    00:00 +2°C° 0 mm 5 m/S 735 mmHg 90%
    01:00 +1°C° 0 mm 5 m/S 736 mmHg 91%
    02:00 0°C° 0 mm 5 m/S 736 mmHg 91%
    03:00 0°C° 0 mm 4 m/S 737 mmHg 91%
    04:00 -1°C° 0 mm 4 m/S 738 mmHg 90%
    05:00 -1°C° 0 mm 4 m/S 738 mmHg 89%
    06:00 -1°C° 0 mm 4 m/S 739 mmHg 87%
    07:00 -1°C° 0 mm 4 m/S 740 mmHg 85%
    08:00 -1°C° 0 mm 4 m/S 740 mmHg 83%
    09:00 -1°C° 0 mm 4 m/S 741 mmHg 80%
    10:00 0°C° 0 mm 4 m/S 742 mmHg 78%
    11:00 +1°C° 0 mm 4 m/S 742 mmHg 75%
    12:00 +3°C° 0 mm 4 m/S 742 mmHg 73%
    13:00 +4°C° 0 mm 4 m/S 742 mmHg 71%
    14:00 +4°C° 0 mm 4 m/S 742 mmHg 69%
    15:00 +4°C° 0 mm 4 m/S 742 mmHg 67%
    16:00 +3°C° 0 mm 3 m/S 743 mmHg 71%
    17:00 +2°C° 0 mm 3 m/S 743 mmHg 76%
    18:00 +1°C° 0 mm 2 m/S 743 mmHg 81%
    19:00 +1°C° 0 mm 2 m/S 744 mmHg 82%
    20:00 +2°C° 0 mm 1 m/S 744 mmHg 83%
    21:00 +2°C° 0 mm 1 m/S 745 mmHg 84%
    22:00 +1°C° 0 mm 1 m/S 745 mmHg 84%
    23:00 +1°C° 0 mm 1 m/S 745 mmHg 83%

    22 Februar, Freitag

    Zeit Temperatur Niederschläge Wind Luftdruck Luftfeuchtigkeit
    00:00 +1°C° 0 mm 1 m/S 746 mmHg 83%
    01:00 -1°C° 0 mm 2 m/S 746 mmHg 82%
    02:00 -1°C° 0 mm 2 m/S 746 mmHg 81%
    03:00 -1°C° 0 mm 2 m/S 746 mmHg 80%
    04:00 -1°C° 0 mm 2 m/S 746 mmHg 79%
    05:00 -2°C° 0 mm 2 m/S 747 mmHg 79%
    06:00 -2°C° 0 mm 2 m/S 747 mmHg 79%
    07:00 -1°C° 0 mm 2 m/S 748 mmHg 74%
    08:00 +1°C° 0 mm 2 m/S 748 mmHg 70%
    09:00 +1°C° 0 mm 3 m/S 748 mmHg 66%
    10:00 +2°C° 0 mm 3 m/S 748 mmHg 62%
    11:00 +3°C° 0 mm 3 m/S 748 mmHg 58%
    12:00 +4°C° 0 mm 3 m/S 747 mmHg 54%
    13:00 +4°C° 0 mm 3 m/S 747 mmHg 55%
    14:00 +4°C° 0 mm 3 m/S 746 mmHg 57%
    15:00 +5°C° 0 mm 3 m/S 746 mmHg 58%
    16:00 +4°C° 0 mm 3 m/S 746 mmHg 63%
    17:00 +3°C° 0 mm 3 m/S 746 mmHg 68%
    18:00 +2°C° 0 mm 3 m/S 746 mmHg 73%
    19:00 +1°C° 0 mm 3 m/S 746 mmHg 75%
    20:00 +1°C° 0 mm 3 m/S 745 mmHg 77%
    21:00 +1°C° 0 mm 3 m/S 745 mmHg 79%
    22:00 +1°C° 0 mm 3 m/S 745 mmHg 79%
    23:00 +1°C° 0 mm 3 m/S 744 mmHg 80%

    23 Februar, Samstag

    Zeit Temperatur Niederschläge Wind Luftdruck Luftfeuchtigkeit
    00:00 +1°C° 0 mm 3 m/S 743 mmHg 80%
    01:00 +1°C° 0 mm 3 m/S 743 mmHg 82%
    02:00 +1°C° 0 mm 3 m/S 742 mmHg 84%
    03:00 +1°C° 0 mm 3 m/S 742 mmHg 86%
    04:00 +1°C° 0 mm 3 m/S 741 mmHg 88%
    05:00 +2°C° 0 mm 2 m/S 741 mmHg 91%
    06:00 +2°C° 0 mm 2 m/S 741 mmHg 93%
    07:00 +2°C° 0 mm 3 m/S 741 mmHg 92%
    08:00 +4°C° 0 mm 3 m/S 740 mmHg 92%
    09:00 +5°C° 0 mm 3 m/S 740 mmHg 91%
    10:00 +7°C° 0 mm 3 m/S 739 mmHg 91%
    11:00 +8°C° 0 mm 3 m/S 738 mmHg 90%
    12:00 +9°C° 0 mm 3 m/S 738 mmHg 90%
    13:00 +9°C° 0.2 mm 3 m/S 737 mmHg 92%
    14:00 +9°C° 0.2 mm 3 m/S 736 mmHg 95%
    15:00 +9°C° 0.2 mm 3 m/S 735 mmHg 97%
    16:00 +10°C° 1.4 mm 4 m/S 734 mmHg 97%
    17:00 +10°C° 1.4 mm 5 m/S 733 mmHg 96%
    18:00 +11°C° 1.4 mm 6 m/S 732 mmHg 96%
    19:00 +13°C° 3 mm 8 m/S 730 mmHg 94%
    20:00 +14°C° 3 mm 10 m/S 729 mmHg 92%
    21:00 +16°C° 3 mm 11 m/S 728 mmHg 90%
    22:00 +16°C° 1.9 mm 10 m/S 727 mmHg 91%
    23:00 +16°C° 1.9 mm 9 m/S 726 mmHg 92%

    24 Februar, Sonntag

    Zeit Temperatur Niederschläge Wind Luftdruck Luftfeuchtigkeit
    00:00 +16°C° 1.9 mm 8 m/S 725 mmHg 93%
    01:00 +16°C° 0.4 mm 8 m/S 725 mmHg 90%
    02:00 +15°C° 0.4 mm 8 m/S 724 mmHg 87%
    03:00 +15°C° 0.4 mm 8 m/S 724 mmHg 84%
    04:00 +12°C° 0 mm 9 m/S 724 mmHg 81%
    05:00 +9°C° 0 mm 10 m/S 725 mmHg 77%
    06:00 +7°C° 0 mm 11 m/S 725 mmHg 73%
    07:00 +6°C° 0 mm 11 m/S 726 mmHg 74%
    08:00 +4°C° 0 mm 11 m/S 726 mmHg 74%
    09:00 +3°C° 0 mm 11 m/S 727 mmHg 75%
    10:00 +3°C° 0 mm 11 m/S 728 mmHg 74%
    11:00 +3°C° 0 mm 12 m/S 728 mmHg 72%
    12:00 +3°C° 0 mm 12 m/S 729 mmHg 71%
    13:00 +3°C° 0 mm 12 m/S 729 mmHg 70%
    14:00 +2°C° 0 mm 12 m/S 729 mmHg 70%
    15:00 +2°C° 0 mm 11 m/S 730 mmHg 70%
    16:00 +1°C° 0 mm 11 m/S 730 mmHg 69%
    17:00 +1°C° 0 mm 11 m/S 731 mmHg 69%
    18:00 0°C° 0 mm 10 m/S 732 mmHg 69%
    19:00 0°C° 0 mm 10 m/S 733 mmHg 69%
    20:00 -2°C° 0 mm 10 m/S 734 mmHg 69%
    21:00 -1°C° 0 mm 9 m/S 734 mmHg 70%
    22:00 -3°C° 0 mm 9 m/S 735 mmHg 71%
    23:00 -2°C° 0 mm 8 m/S 736 mmHg 71%
    Mehr zeigen